XBFGP MMOX-MMVR

Flight info

Callsign XBFGP
Flight time 0h 31m
Altitude 17500
Route MMOX DCT MMVR
Aircraft TBM9/L-V/N

Departure

Time 2026-04-21 04:59
Airport Xoxocotlán International Airport (MMOX)

Arrival

Time 2026-04-21 05:30
Airport General Heriberto Jara International Airport (MMVR)
Time Latitude Longitude Altitude Speed Heading
2026-04-21 04:55 17.00288 -96.72191 4976 ft 0 kts 14°
2026-04-21 04:57 17.00288 -96.72228 4985 ft 23 kts 262°
2026-04-21 04:57 17.00315 -96.72449 4983 ft 25 kts 249°
2026-04-21 04:58 17.00076 -96.72539 4980 ft 63 kts 192°
2026-04-21 04:58 16.99533 -96.72698 5019 ft 91 kts 196°
2026-04-21 04:58 16.98810 -96.72856 5164 ft 118 kts 191°
2026-04-21 04:58 16.97933 -96.73011 5550 ft 132 kts 189°
2026-04-21 04:59 16.97059 -96.72838 6090 ft 133 kts 138°
2026-04-21 04:59 16.96802 -96.71971 6657 ft 130 kts 72°
2026-04-21 04:59 16.97423 -96.71404 7232 ft 121 kts
2026-04-21 04:59 16.98168 -96.71725 7703 ft 121 kts 324°
2026-04-21 05:00 16.98909 -96.72189 8134 ft 127 kts 332°
2026-04-21 05:00 16.99778 -96.72467 8583 ft 134 kts 354°
2026-04-21 05:00 17.01643 -96.72151 9606 ft 138 kts 11°
2026-04-21 05:01 17.02592 -96.71927 10111 ft 141 kts 12°
2026-04-21 05:01 17.03558 -96.71689 10614 ft 144 kts 13°
2026-04-21 05:01 17.04544 -96.71445 11118 ft 147 kts 13°
2026-04-21 05:01 17.05550 -96.71194 11617 ft 150 kts 13°
2026-04-21 05:02 17.06579 -96.70939 12123 ft 154 kts 13°
2026-04-21 05:02 17.07630 -96.70678 12627 ft 157 kts 13°
2026-04-21 05:02 17.08688 -96.70415 13123 ft 160 kts 13°
2026-04-21 05:02 17.09792 -96.70140 13552 ft 169 kts 13°
2026-04-21 05:03 17.10978 -96.69842 13918 ft 181 kts 13°
2026-04-21 05:03 17.12241 -96.69527 14331 ft 190 kts 13°
2026-04-21 05:03 17.13532 -96.69206 14842 ft 192 kts 13°
2026-04-21 05:03 17.14846 -96.68881 15350 ft 195 kts 13°
2026-04-21 05:04 17.16177 -96.68551 15852 ft 197 kts 13°
2026-04-21 05:04 17.17522 -96.68217 16364 ft 199 kts 13°
2026-04-21 05:04 17.18876 -96.67881 16851 ft 201 kts 13°
2026-04-21 05:04 17.20239 -96.67542 17352 ft 202 kts 13°
2026-04-21 05:05 17.21668 -96.67186 17501 ft 223 kts 13°
2026-04-21 05:05 17.23254 -96.66786 17509 ft 245 kts 13°
2026-04-21 05:05 17.24974 -96.66353 17511 ft 263 kts 13°
2026-04-21 05:05 17.26799 -96.65898 17511 ft 275 kts 13°
2026-04-21 05:06 17.28697 -96.65426 17510 ft 285 kts 13°
2026-04-21 05:06 17.30647 -96.64940 17511 ft 291 kts 13°
2026-04-21 05:06 17.32633 -96.64445 17510 ft 296 kts 13°
2026-04-21 05:06 17.34623 -96.63950 17509 ft 299 kts 13°
2026-04-21 05:07 17.36654 -96.63445 17509 ft 301 kts 13°
2026-04-21 05:07 17.38696 -96.62937 17508 ft 302 kts 13°
2026-04-21 05:07 17.40744 -96.62429 17511 ft 303 kts 13°
2026-04-21 05:07 17.42797 -96.61917 17509 ft 304 kts 13°
2026-04-21 05:08 17.44856 -96.61406 17507 ft 304 kts 13°
2026-04-21 05:08 17.46920 -96.60892 17507 ft 305 kts 14°
2026-04-21 05:08 17.48987 -96.60373 17506 ft 305 kts 14°
2026-04-21 05:08 17.51046 -96.59861 17505 ft 304 kts 13°
2026-04-21 05:09 17.53111 -96.59348 17504 ft 304 kts 13°
2026-04-21 05:09 17.55168 -96.58837 17503 ft 304 kts 13°
2026-04-21 05:09 17.57228 -96.58322 17501 ft 304 kts 13°
2026-04-21 05:09 17.59290 -96.57808 17498 ft 305 kts 13°
2026-04-21 05:10 17.61327 -96.57301 17497 ft 305 kts 14°
2026-04-21 05:10 17.63393 -96.56783 17497 ft 305 kts 14°
2026-04-21 05:10 17.65460 -96.56267 17493 ft 305 kts 13°
2026-04-21 05:10 17.67525 -96.55755 17492 ft 305 kts 14°
2026-04-21 05:11 17.69588 -96.55237 17491 ft 305 kts 14°
2026-04-21 05:11 17.71651 -96.54720 17487 ft 304 kts 13°
2026-04-21 05:11 17.73709 -96.54207 17492 ft 304 kts 13°
2026-04-21 05:11 17.75760 -96.53695 17490 ft 303 kts 13°
2026-04-21 05:12 17.77814 -96.53183 17491 ft 303 kts 13°
2026-04-21 05:12 17.79868 -96.52670 17488 ft 303 kts 14°
2026-04-21 05:12 17.81922 -96.52154 17491 ft 303 kts 14°
2026-04-21 05:12 17.83946 -96.51648 17491 ft 302 kts 13°
2026-04-21 05:13 17.85992 -96.51137 17491 ft 302 kts 13°
2026-04-21 05:13 17.88037 -96.50626 17493 ft 301 kts 13°
2026-04-21 05:13 17.90076 -96.50115 17492 ft 301 kts 14°
2026-04-21 05:13 17.92113 -96.49605 17492 ft 301 kts 13°
2026-04-21 05:14 17.94152 -96.49097 17488 ft 301 kts 13°
2026-04-21 05:14 17.96192 -96.48585 17491 ft 301 kts 14°
2026-04-21 05:14 17.98231 -96.48071 17491 ft 301 kts 14°
2026-04-21 05:14 18.00270 -96.47561 17490 ft 301 kts 13°
2026-04-21 05:15 18.02307 -96.47052 17491 ft 301 kts 13°
2026-04-21 05:15 18.04339 -96.46543 17492 ft 300 kts 14°
2026-04-21 05:15 18.06376 -96.46031 17491 ft 300 kts 13°
2026-04-21 05:15 18.08407 -96.45522 17486 ft 300 kts 14°
2026-04-21 05:16 18.10445 -96.45011 17492 ft 300 kts 13°
2026-04-21 05:16 18.12479 -96.44500 17492 ft 300 kts 14°
2026-04-21 05:16 18.14509 -96.43991 17491 ft 300 kts 13°
2026-04-21 05:16 18.16545 -96.43480 17492 ft 300 kts 13°
2026-04-21 05:17 18.18561 -96.42973 17491 ft 300 kts 14°
2026-04-21 05:17 18.20438 -96.42502 17491 ft 300 kts 13°
2026-04-21 05:17 18.22138 -96.42075 17490 ft 300 kts 14°
2026-04-21 05:17 18.24169 -96.41564 17486 ft 300 kts 14°
2026-04-21 05:18 18.26179 -96.41060 17491 ft 300 kts 13°
2026-04-21 05:18 18.28209 -96.40549 17488 ft 300 kts 14°
2026-04-21 05:18 18.30241 -96.40037 17491 ft 300 kts 14°
2026-04-21 05:18 18.32274 -96.39527 17492 ft 300 kts 14°
2026-04-21 05:19 18.34303 -96.39016 17490 ft 300 kts 14°
2026-04-21 05:19 18.36337 -96.38504 17492 ft 300 kts 14°
2026-04-21 05:19 18.38366 -96.37994 17486 ft 300 kts 13°
2026-04-21 05:19 18.40403 -96.37481 17491 ft 300 kts 14°
2026-04-21 05:20 18.42436 -96.36969 17491 ft 300 kts 14°
2026-04-21 05:20 18.44465 -96.36458 17491 ft 300 kts 14°
2026-04-21 05:20 18.46498 -96.35946 17489 ft 300 kts 14°
2026-04-21 05:20 18.48528 -96.35434 17491 ft 300 kts 14°
2026-04-21 05:21 18.50535 -96.34929 17492 ft 300 kts 14°
2026-04-21 05:21 18.52560 -96.34417 17488 ft 300 kts 14°
2026-04-21 05:21 18.54589 -96.33906 17492 ft 300 kts 14°
2026-04-21 05:21 18.56621 -96.33393 17491 ft 300 kts 14°
2026-04-21 05:22 18.58655 -96.32880 17490 ft 300 kts 14°
2026-04-21 05:22 18.60684 -96.32368 17492 ft 300 kts 14°
2026-04-21 05:22 18.62715 -96.31856 17490 ft 300 kts 14°
2026-04-21 05:22 18.64743 -96.31343 17491 ft 300 kts 14°
2026-04-21 05:23 18.66771 -96.30831 17491 ft 300 kts 14°
2026-04-21 05:23 18.68804 -96.30318 17435 ft 301 kts 14°
2026-04-21 05:23 18.70891 -96.29783 16937 ft 315 kts 14°
2026-04-21 05:23 18.73049 -96.29220 16435 ft 323 kts 14°
2026-04-21 05:24 18.75248 -96.28675 15943 ft 326 kts 13°
2026-04-21 05:24 18.77465 -96.28128 15446 ft 328 kts 14°
2026-04-21 05:24 18.79653 -96.27576 14955 ft 328 kts 14°
2026-04-21 05:24 18.81869 -96.27016 14455 ft 327 kts 14°
2026-04-21 05:25 18.84077 -96.26456 13954 ft 326 kts 14°
2026-04-21 05:25 18.86276 -96.25898 13453 ft 324 kts 14°
2026-04-21 05:25 18.88470 -96.25341 12951 ft 323 kts 14°
2026-04-21 05:25 18.90649 -96.24787 12449 ft 321 kts 14°
2026-04-21 05:26 18.92813 -96.24238 11947 ft 319 kts 14°
2026-04-21 05:26 18.94966 -96.23690 11445 ft 317 kts 14°
2026-04-21 05:26 18.97080 -96.23152 10837 ft 302 kts 14°
2026-04-21 05:26 18.99061 -96.22567 9611 ft 293 kts 20°
2026-04-21 05:27 19.00907 -96.21711 8356 ft 287 kts 26°
2026-04-21 05:27 19.02725 -96.20883 7082 ft 283 kts 19°
2026-04-21 05:27 19.04603 -96.20328 5786 ft 274 kts 14°
2026-04-21 05:27 19.06471 -96.19921 3798 ft 282 kts
2026-04-21 05:28 19.08081 -96.19812 3007 ft 169 kts
2026-04-21 05:28 19.09068 -96.19641 2282 ft 112 kts 13°
2026-04-21 05:28 19.09919 -96.19492 1475 ft 139 kts
2026-04-21 05:28 19.10941 -96.19408 775 ft 153 kts
2026-04-21 05:29 19.11975 -96.19288 307 ft 138 kts 13°
2026-04-21 05:29 19.12849 -96.19100 135 ft 115 kts 11°
2026-04-21 05:29 19.13491 -96.18965 91 ft 79 kts 12°
2026-04-21 05:29 19.13978 -96.18824 83 ft 66 kts 40°
2026-04-21 05:30 19.14202 -96.18562 80 ft 27 kts 97°
2026-04-21 05:30 19.14124 -96.18465 82 ft 15 kts 208°
2026-04-21 05:30 19.14125 -96.18494 81 ft 0 kts 315°